When you browse on this site, cookies collect data to enhance your experience and personalize the content and advertising you see.
Visit our Privacy Policy to learn more. By continuing to use the site, you agree to this use of cookies and data.
  • en France
  • Liste des pays
  • À 7 jours
  • Température de l'eau
  • Carte satellitaire
  • Carte météo
  • Widgets météo
  • user-avatar
    Se connecter

    Météo par heure à Megri

    Ce jour, 19 Avril, Vendredi

    Heure Température Précipitation Vent Pression Humidité
    00:00 +7°C° 0 mm 1 m/s 618 mmHg 68%
    01:00 +7°C° 0 mm 1 m/s 618 mmHg 69%
    02:00 +6°C° 0 mm 1 m/s 618 mmHg 71%
    03:00 +6°C° 0 mm 1 m/s 617 mmHg 75%
    04:00 +6°C° 0 mm 1 m/s 617 mmHg 75%
    05:00 +6°C° 0 mm 1 m/s 617 mmHg 75%
    06:00 +5°C° 0 mm 1 m/s 617 mmHg 76%
    07:00 +7°C° 0 mm 1 m/s 617 mmHg 69%
    08:00 +7°C° 0 mm 2 m/s 618 mmHg 62%
    09:00 +8°C° 0 mm 2 m/s 618 mmHg 57%
    10:00 +9°C° 0.1 mm 2 m/s 618 mmHg 53%
    11:00 +9°C° 0.1 mm 2 m/s 618 mmHg 49%
    12:00 +10°C° 0.1 mm 3 m/s 618 mmHg 45%
    13:00 +10°C° 0.2 mm 3 m/s 618 mmHg 44%
    14:00 +10°C° 0.2 mm 3 m/s 618 mmHg 43%
    15:00 +9°C° 0 mm 2 m/s 617 mmHg 46%
    16:00 +8°C° 0.1 mm 3 m/s 617 mmHg 51%
    17:00 +7°C° 0.1 mm 3 m/s 617 mmHg 56%
    18:00 +7°C° 0.1 mm 3 m/s 616 mmHg 61%
    19:00 +5°C° 0.5 mm 3 m/s 616 mmHg 67%
    20:00 +4°C° 0.5 mm 3 m/s 616 mmHg 73%
    21:00 +3°C° 0.5 mm 3 m/s 615 mmHg 79%
    22:00 +2°C° 0.7 mm 3 m/s 615 mmHg 81%
    23:00 0°C° 0.7 mm 4 m/s 615 mmHg 83%

    Demain, 20 Avril, Samedi

    Heure Température Précipitation Vent Pression Humidité
    00:00 -1°C° 0.7 mm 4 m/s 614 mmHg 86%
    01:00 -2°C° 2.3 mm 4 m/s 614 mmHg 88%
    02:00 -2°C° 2.3 mm 4 m/s 614 mmHg 89%
    03:00 -3°C° 2.3 mm 4 m/s 613 mmHg 91%
    04:00 -3°C° 1.5 mm 4 m/s 613 mmHg 91%
    05:00 -4°C° 1.5 mm 4 m/s 614 mmHg 91%
    06:00 -4°C° 1.5 mm 3 m/s 614 mmHg 92%
    07:00 -4°C° 2.2 mm 3 m/s 614 mmHg 92%
    08:00 -4°C° 2.2 mm 3 m/s 614 mmHg 93%
    09:00 -4°C° 2.2 mm 3 m/s 615 mmHg 93%
    10:00 -4°C° 0.6 mm 3 m/s 615 mmHg 92%
    11:00 -2°C° 0.6 mm 2 m/s 616 mmHg 92%
    12:00 -1°C° 0.6 mm 2 m/s 616 mmHg 91%
    13:00 -1°C° 0 mm 2 m/s 616 mmHg 90%
    14:00 +1°C° 0 mm 2 m/s 617 mmHg 89%
    15:00 +2°C° 0 mm 2 m/s 617 mmHg 88%
    16:00 +1°C° 0 mm 2 m/s 617 mmHg 87%
    17:00 +1°C° 0 mm 2 m/s 617 mmHg 86%
    18:00 +1°C° 0 mm 2 m/s 617 mmHg 85%
    19:00 -1°C° 0 mm 2 m/s 617 mmHg 85%
    20:00 -2°C° 0 mm 2 m/s 617 mmHg 86%
    21:00 -4°C° 0 mm 3 m/s 617 mmHg 87%
    22:00 -4°C° 0 mm 3 m/s 617 mmHg 86%
    23:00 -4°C° 0 mm 2 m/s 617 mmHg 86%

    Après-demain, 21 Avril, Dimanche

    Heure Température Précipitation Vent Pression Humidité
    00:00 -4°C° 0 mm 2 m/s 617 mmHg 85%
    01:00 -4°C° 0 mm 2 m/s 617 mmHg 85%
    02:00 -4°C° 0 mm 2 m/s 617 mmHg 84%
    03:00 -4°C° 0 mm 2 m/s 617 mmHg 84%
    04:00 -3°C° 0 mm 2 m/s 617 mmHg 84%
    05:00 -3°C° 0 mm 2 m/s 617 mmHg 84%
    06:00 -3°C° 0 mm 2 m/s 618 mmHg 84%
    07:00 -1°C° 0 mm 2 m/s 618 mmHg 84%
    08:00 +1°C° 0 mm 2 m/s 618 mmHg 85%
    09:00 +1°C° 0 mm 3 m/s 619 mmHg 85%
    10:00 +2°C° 0 mm 3 m/s 619 mmHg 84%
    11:00 +3°C° 0 mm 3 m/s 619 mmHg 82%
    12:00 +3°C° 0 mm 3 m/s 619 mmHg 80%
    13:00 +4°C° 0.1 mm 3 m/s 618 mmHg 80%
    14:00 +4°C° 0.1 mm 3 m/s 618 mmHg 79%
    15:00 +4°C° 0.1 mm 3 m/s 618 mmHg 79%
    16:00 +3°C° 0 mm 4 m/s 617 mmHg 80%
    17:00 +1°C° 0 mm 4 m/s 617 mmHg 82%
    18:00 +1°C° 0 mm 4 m/s 617 mmHg 83%
    19:00 0°C° 0.1 mm 4 m/s 617 mmHg 84%
    20:00 -1°C° 0.1 mm 4 m/s 617 mmHg 85%
    21:00 -2°C° 0.1 mm 4 m/s 617 mmHg 86%
    22:00 -2°C° 0 mm 4 m/s 617 mmHg 86%
    23:00 -2°C° 0 mm 4 m/s 617 mmHg 87%

    22 Avril, Lundi

    Heure Température Précipitation Vent Pression Humidité
    00:00 -3°C° 0 mm 4 m/s 617 mmHg 88%
    01:00 -3°C° 0 mm 4 m/s 617 mmHg 88%
    02:00 -3°C° 0 mm 4 m/s 617 mmHg 88%
    03:00 -3°C° 0 mm 4 m/s 617 mmHg 88%
    04:00 -3°C° 0 mm 4 m/s 617 mmHg 87%
    05:00 -3°C° 0 mm 4 m/s 617 mmHg 87%
    06:00 -3°C° 0 mm 4 m/s 616 mmHg 86%
    07:00 -2°C° 0.3 mm 4 m/s 616 mmHg 85%
    08:00 -2°C° 0.3 mm 5 m/s 617 mmHg 83%
    09:00 -1°C° 0.3 mm 5 m/s 617 mmHg 82%
    10:00 -2°C° 0.2 mm 6 m/s 617 mmHg 81%
    11:00 -1°C° 0.2 mm 6 m/s 617 mmHg 79%
    12:00 0°C° 0.2 mm 7 m/s 617 mmHg 78%
    13:00 -1°C° 0.4 mm 6 m/s 616 mmHg 79%
    14:00 -1°C° 0.4 mm 6 m/s 616 mmHg 80%
    15:00 -1°C° 0.4 mm 6 m/s 616 mmHg 81%
    16:00 -1°C° 0.9 mm 5 m/s 616 mmHg 83%
    17:00 -2°C° 0.9 mm 5 m/s 616 mmHg 85%
    18:00 -2°C° 0.9 mm 5 m/s 616 mmHg 87%
    19:00 -3°C° 0.8 mm 4 m/s 617 mmHg 88%
    20:00 -3°C° 0.8 mm 4 m/s 617 mmHg 88%
    21:00 -3°C° 0.8 mm 4 m/s 617 mmHg 89%
    22:00 -3°C° 0.5 mm 4 m/s 618 mmHg 90%
    23:00 -3°C° 0.5 mm 4 m/s 618 mmHg 90%

    23 Avril, Mardi

    Heure Température Précipitation Vent Pression Humidité
    00:00 -3°C° 0.5 mm 4 m/s 618 mmHg 90%
    01:00 -4°C° 0.3 mm 4 m/s 618 mmHg 90%
    02:00 -4°C° 0.3 mm 4 m/s 618 mmHg 90%
    03:00 -5°C° 0.3 mm 3 m/s 619 mmHg 90%
    04:00 -5°C° 0.2 mm 3 m/s 619 mmHg 90%
    05:00 -5°C° 0.2 mm 3 m/s 619 mmHg 89%
    06:00 -5°C° 0.2 mm 3 m/s 620 mmHg 89%
    07:00 -4°C° 0.1 mm 3 m/s 621 mmHg 86%
    08:00 -2°C° 0.1 mm 3 m/s 621 mmHg 83%
    09:00 -1°C° 0.1 mm 3 m/s 622 mmHg 80%
    10:00 -1°C° 0 mm 3 m/s 622 mmHg 79%
    11:00 0°C° 0 mm 3 m/s 623 mmHg 78%
    12:00 +1°C° 0 mm 3 m/s 623 mmHg 77%
    13:00 +1°C° 0 mm 3 m/s 623 mmHg 76%
    14:00 +1°C° 0 mm 3 m/s 623 mmHg 75%
    15:00 +2°C° 0 mm 3 m/s 623 mmHg 73%
    16:00 +1°C° 0 mm 3 m/s 623 mmHg 75%
    17:00 +1°C° 0 mm 3 m/s 623 mmHg 76%
    18:00 0°C° 0 mm 3 m/s 624 mmHg 78%
    19:00 -1°C° 0 mm 3 m/s 624 mmHg 80%
    20:00 -1°C° 0 mm 3 m/s 624 mmHg 83%
    21:00 -2°C° 0 mm 2 m/s 624 mmHg 85%
    22:00 -2°C° 0 mm 2 m/s 624 mmHg 85%
    23:00 -3°C° 0 mm 2 m/s 624 mmHg 86%

    24 Avril, Mercredi

    Heure Température Précipitation Vent Pression Humidité
    00:00 -3°C° 0 mm 2 m/s 624 mmHg 86%
    01:00 -3°C° 0 mm 2 m/s 624 mmHg 85%
    02:00 -4°C° 0 mm 2 m/s 624 mmHg 84%
    03:00 -4°C° 0 mm 2 m/s 624 mmHg 83%
    04:00 -4°C° 0 mm 2 m/s 624 mmHg 81%
    05:00 -4°C° 0 mm 2 m/s 625 mmHg 79%
    06:00 -3°C° 0 mm 2 m/s 625 mmHg 77%
    07:00 -2°C° 0 mm 2 m/s 626 mmHg 71%
    08:00 +1°C° 0 mm 2 m/s 626 mmHg 66%
    09:00 +2°C° 0 mm 2 m/s 626 mmHg 61%
    10:00 +3°C° 0 mm 2 m/s 626 mmHg 63%
    11:00 +4°C° 0 mm 2 m/s 626 mmHg 65%
    12:00 +4°C° 0 mm 2 m/s 626 mmHg 66%
    13:00 +5°C° 0 mm 2 m/s 626 mmHg 66%
    14:00 +5°C° 0 mm 2 m/s 625 mmHg 66%
    15:00 +5°C° 0 mm 2 m/s 625 mmHg 66%
    16:00 +5°C° 0 mm 2 m/s 625 mmHg 65%
    17:00 +3°C° 0 mm 3 m/s 625 mmHg 64%
    18:00 +2°C° 0 mm 3 m/s 625 mmHg 63%
    19:00 +1°C° 0 mm 3 m/s 625 mmHg 66%
    20:00 0°C° 0 mm 3 m/s 625 mmHg 69%
    21:00 -1°C° 0 mm 2 m/s 625 mmHg 73%
    22:00 -1°C° 0 mm 2 m/s 624 mmHg 73%
    23:00 -2°C° 0 mm 2 m/s 624 mmHg 74%
    Voir plus